Location: Winthrop
(48.4780°N, 120.1850°W)
Time: 20:26:50
(UTC-07:00)

Explorer 7 - Pass Details

Date: 06 February 2023
Orbit: 478 x 657 km, 50.3° (Epoch: 25 March)

Event Time Altitude Azimuth Distance (km) Brightness Sun altitude
Rises 16:18:04 0° 288° (WNW) 2,821 11.1 6.4°
Reaches altitude 10° 16:20:25 10° 281° (W) 1,949 10.5 6.1°
Maximum altitude 16:24:33 38° 213° (SSW) 961 9.0 5.5°
Drops below altitude 10° 16:28:52 10° 146° (SE) 2,030 9.7 4.9°
Sets 16:31:22 0° 139° (SE) 2,955 10.4 4.6°
